www.pogodaiklimat.ru

Погода и климат >> Архив погоды >> Австралия >> Alice Springs Airport


ПОГОДА в Alice Springs Airport

  • Прогноз погоды в Alice Springs Airport
  • Монитор погоды в Alice Springs Airport
  • Климат города

АРХИВ ПОГОДЫ в Alice Springs Airport

Время (UTC), дата Ветер
(напр.,м/с)
 
Видим.   Явления Облачность Т
(С)
Тd
(С)
f
(%)
Тe
(С)
Тes
(С)
Комфортность P
(гПа)
Po
(гПа)
Тmin
(С)
Tmax
(С)
R
(мм)
R24
(мм)
S
(см)
05 14.04 ЮВ 6 н/о н/о +29.4 +2.6 18 +27 +27 жарко 1013.3 951.4
06 14.04 ЮВ 6 н/о н/о +29.6 +3.6 19 +28 +28 жарко 1013.1 951.2
08 14.04 ЮВ 5 н/о н/о +28.7 +5.5 23 +27 +27 жарко 1013.4 951.5
09 14.04 ЮВ 5 н/о н/о +26.7 +6.2 27 +26 +26 жарко 1013.9 952.0
11 14.04 ЮВ 3 н/о н/о +23.3 +6.6 34 +24 +24 комфорт 1015.1 953.1
12 14.04 ЮВ 3 н/о н/о +21.4 +6.5 38 +22 +22 комфорт 1015.7 953.7
14 14.04 ЮВ 3 н/о н/о +18.3 +6.5 46 +19 +19 1015.8 953.8
15 14.04 В 3 н/о н/о +18.7 +6.5 45 +19 +19 1015.5 953.5
17 14.04 Ю 2 н/о н/о +15.2 +5.4 52 +15 +15 1015.1 953.1
18 14.04 З 2 н/о н/о +14.7 +6.3 57 +14 +14 1014.8 952.8
20 14.04 штиль 0 н/о н/о +13.5 +5.2 57 +13 +13 1015.6 953.6
21 14.04 С 1 н/о н/о +13.1 +6.2 63 +14 +14 1016.2 954.2
23 14.04 В 3 н/о н/о +20.1 +5.4 38 +21 +21 комфорт 1018.1 955.9
00 15.04 В 6 н/о н/о +22.7 +4.7 31 +23 +23 комфорт 1018.7 956.5
02 15.04 В 6 н/о н/о +25.2 +4.9 27 +25 +25 комфорт 1017.7 955.6
03 15.04 В 5 н/о н/о +27.2 +4.9 24 +26 +26 жарко 1016.8 954.7
05 15.04 В 5 н/о н/о +27.8 +4.2 22 +26 +26 жарко 1015.0 953.0
06 15.04 ЮВ 6 н/о н/о +29.1 +3.1 19 +27 +27 жарко 1014.3 952.4
08 15.04 ЮВ 4 н/о н/о +28.0 +2.2 19 +26 +26 жарко 1014.8 952.8
09 15.04 ЮВ 4 н/о н/о +26.0 +3.9 24 +25 +25 комфорт 1015.2 953.2
11 15.04 ЮВ 3 н/о н/о +22.6 +3.7 29 +23 +23 комфорт 1016.7 954.6
12 15.04 В 2 н/о н/о +19.5 +2.8 33 +20 +20 1017.1 955.0
14 15.04 штиль 0 н/о н/о +16.4 +2.8 40 +16 +16 1016.9 954.8
15 15.04 ЮВ 3 н/о н/о +15.6 +2.7 42 +15 +15 1016.8 954.7
17 15.04 ЮВ 2 н/о н/о +14.1 +2.7 46 +14 +14 1016.6 954.5
18 15.04 Ю 1 н/о н/о +13.3 +2.8 49 +14 +14 1016.5 954.4
20 15.04 штиль 0 н/о н/о +12.5 +2.7 51 +12 +12 1017.0 954.9
21 15.04 ЮЗ 1 н/о н/о +11.6 +2.9 55 +12 +12 1017.6 955.5
23 15.04 В 2 н/о н/о +20.3 +6.6 41 +22 +22 комфорт 1019.0 956.8
00 16.04 В 5 н/о н/о +23.8 +7.4 35 +24 +24 комфорт 1019.4 957.2
02 16.04 В 3 н/о н/о +25.6 +6.8 30 +25 +25 комфорт 1018.7 956.5
03 16.04 ЮВ 5 н/о н/о +27.0 +5.3 25 +26 +26 жарко 1017.8 955.7
05 16.04 ЮВ 3 н/о н/о +28.3 +4.6 22 +27 +27 жарко 1015.9 953.9
06 16.04 ЮВ 5 н/о н/о +29.3 +4.7 21 +28 +28 жарко 1015.5 953.5
08 16.04 В 6 н/о н/о +28.2 +3.8 21 +27 +27 жарко 1015.9 953.9
09 16.04 ЮВ 4 н/о н/о +26.3 +4.1 24 +25 +25 комфорт 1016.2 954.2
11 16.04 ЮВ 3 н/о н/о +21.4 +4.5 33 +22 +22 комфорт 1017.6 955.5
12 16.04 ЮВ 3 н/о н/о +19.5 +4.0 36 +20 +20 1018.2 956.0
14 16.04 штиль 0 н/о н/о +16.2 +3.9 44 +16 +16 1018.8 956.6
15 16.04 С 2 н/о н/о +16.3 +4.4 45 +16 +16 1018.6 956.4
17 16.04 штиль 0 н/о н/о +14.0 +4.0 51 +14 +14 1017.7 955.6
18 16.04 штиль 0 н/о н/о +13.2 +4.4 55 +13 +13 1017.4 955.3
20 16.04 СЗ 2 н/о н/о +12.3 +4.3 58 +12 +12 1017.9 955.8
21 16.04 З 3 н/о н/о +11.0 +3.5 60 +10 +10 1018.9 956.7
23 16.04 В 2 н/о н/о +20.7 +7.0 41 +23 +23 комфорт 1019.8 957.5
00 17.04 В 5 н/о н/о +23.3 +8.6 39 +25 +25 комфорт 1020.1 957.8
02 17.04 В 7 н/о н/о +26.3 +7.8 31 +26 +26 жарко 1018.7 956.5
03 17.04 В 6 н/о н/о +27.2 +7.6 29 +27 +27 жарко 1017.3 955.2
05 17.04 В 5 н/о н/о +29.0 +5.8 23 +28 +28 жарко 1015.3 953.3
06 17.04 ЮВ 4 н/о н/о +29.7 +4.4 20 +28 +28 жарко 1015.0 953.0
08 17.04 В 4 н/о н/о +29.1 +5.2 22 +28 +28 жарко 1015.2 953.2
09 17.04 В 3 н/о н/о +26.4 +4.8 25 +26 +26 жарко 1015.4 953.4
11 17.04 ЮВ 3 н/о н/о +21.9 +5.3 34 +22 +22 комфорт 1017.2 955.1
12 17.04 ЮВ 3 н/о н/о +20.0 +5.6 39 +21 +21 комфорт 1017.8 955.7
14 17.04 штиль 0 н/о н/о +18.7 +6.9 46 +19 +19 1017.6 955.5
15 17.04 штиль 0 н/о н/о +16.4 +5.4 48 +16 +16 1017.4 955.3
17 17.04 С 2 н/о н/о +15.7 +5.3 50 +16 +16 1016.7 954.6
18 17.04 С 2 н/о н/о +13.9 +4.8 54 +14 +14 1016.0 954.0
20 17.04 С 3 н/о н/о +13.6 +5.3 57 +13 +13 1016.5 954.4
21 17.04 С 2 н/о н/о +12.4 +4.9 60 +12 +12 1016.8 954.7
23 17.04 штиль 0 н/о н/о +21.3 +7.2 40 +22 +22 комфорт 1017.4 955.3
00 18.04 СВ 5 н/о н/о +25.3 +7.0 31 +25 +25 комфорт 1017.2 955.1
02 18.04 ЮВ 2 н/о н/о +29.3 +5.4 22 +28 +28 жарко 1015.7 953.7
03 18.04 В 3 н/о н/о +30.4 +2.6 17 +28 +28 жарко 1014.9 952.9
05 18.04 Ю 4 н/о н/о +31.3 +0.6 14 +28 +28 жарко 1012.8 951.0
06 18.04 ЮВ 4 н/о н/о +31.8 +1.0 14 +29 +29 жарко 1012.3 950.5
08 18.04 ЮВ 5 н/о н/о +31.2 +1.5 15 +28 +28 жарко 1012.7 950.9
09 18.04 ЮВ 4 н/о н/о +28.9 +2.2 18 +27 +27 жарко 1013.4 951.5
11 18.04 ЮВ 4 н/о н/о +24.5 +2.0 23 +23 +23 комфорт 1014.8 952.8
12 18.04 В 3 н/о н/о +22.5 +2.6 27 +22 +22 комфорт 1015.0 953.0
14 18.04 В 2 н/о н/о +18.9 +1.9 32 +20 +20 1015.3 953.3
15 18.04 штиль 0 н/о н/о +18.1 +2.0 34 +18 +18 1015.1 953.1
17 18.04 СЗ 2 н/о н/о +16.7 +2.7 39 +17 +17 1014.3 952.4
18 18.04 штиль 0 н/о н/о +15.7 +2.8 42 +16 +16 1013.9 952.0
20 18.04 штиль 0 н/о н/о +14.9 +2.4 43 +15 +15 1014.2 952.3
21 18.04 ЮЗ 2 н/о н/о +14.0 +2.9 47 +14 +14 1014.9 952.9
23 18.04 штиль 0 н/о н/о +22.8 +4.8 31 +23 +23 комфорт 1015.5 953.5
00 19.04 СВ 4 н/о н/о +27.1 +5.4 25 +26 +26 жарко 1015.8 953.8
02 19.04 СЗ 4 н/о н/о +33.1 +3.0 15 +30 +30 жарко 1014.3 952.4
03 19.04 СВ 3 н/о н/о +34.3 +3.0 14 +31 +31 жарко 1013.4 951.5
05 19.04 ЮЗ 5 н/о н/о +35.0 +2.5 13 +32 +32 жарко 1011.8 950.0
06 19.04 З 3 н/о н/о +34.9 +2.4 13 +32 +32 жарко 1011.5 949.7
08 19.04 В 4 н/о н/о +33.5 +2.4 14 +30 +30 жарко 1011.5 949.7
09 19.04 В 4 н/о н/о +31.0 +3.1 17 +29 +29 жарко 1012.0 950.2
11 19.04 В 4 н/о н/о +28.4 +4.0 21 +27 +27 жарко 1013.8 951.9
12 19.04 В 3 н/о н/о +28.2 +4.5 22 +27 +27 жарко 1014.5 952.6
14 19.04 В 2 н/о н/о +25.6 +4.7 26 +25 +25 комфорт 1014.5 952.6
15 19.04 В 4 н/о н/о +23.6 +5.0 30 +23 +23 комфорт 1014.1 952.2
17 19.04 С 1 н/о н/о +19.7 +3.8 35 +22 +22 комфорт 1014.1 952.2
18 19.04 В 2 н/о н/о +22.1 +4.2 31 +22 +22 комфорт 1013.8 951.9
20 19.04 ЮВ 3 н/о н/о +18.1 +4.3 40 +18 +18 1014.6 952.7
21 19.04 СВ 3 н/о н/о +18.9 +5.0 40 +20 +20 1015.0 953.0
23 19.04 В 3 н/о н/о +25.5 +5.7 28 +25 +25 комфорт 1016.0 954.0
00 20.04 СВ 3 н/о н/о +29.5 +4.2 20 +28 +28 жарко 1016.2 954.2
02 20.04 В 3 н/о н/о +33.2 +3.1 15 +30 +30 жарко 1015.2 953.2
03 20.04 В 3 н/о н/о +34.7 +3.3 14 +32 +32 жарко 1014.4 952.5
05 20.04 СВ 3 н/о н/о +34.1 +2.8 14 +31 +31 жарко 1012.9 951.1
06 20.04 СЗ 4 н/о н/о +33.9 +2.7 14 +31 +31 жарко 1012.8 951.0
08 20.04 СВ 3 н/о н/о +33.8 +2.6 14 +31 +31 жарко 1012.8 951.0
09 20.04 В 2 н/о н/о +30.8 +3.0 17 +28 +28 жарко 1013.5 951.6
11 20.04 В 4 н/о н/о +27.8 +4.2 22 +26 +26 жарко 1015.0 953.0
12 20.04 В 4 н/о н/о +26.5 +3.7 23 +25 +25 комфорт 1015.6 953.6
14 20.04 ЮВ 3 н/о н/о +22.0 +3.6 30 +22 +22 комфорт 1016.6 954.5
15 20.04 СЗ 3 н/о н/о +21.3 +4.0 32 +22 +22 комфорт 1016.7 954.6
17 20.04 СЗ 2 н/о н/о +18.7 +4.1 38 +19 +19 1016.5 954.4
18 20.04 С 2 н/о н/о +18.8 +3.4 36 +20 +20 1016.0 954.0
20 20.04 СЗ 2 н/о н/о +18.6 +3.6 37 +19 +19 1016.6 954.5
21 20.04 ЮЗ 2 н/о н/о +17.7 +3.9 40 +18 +18 1017.0 954.9
23 20.04 ЮВ 2 н/о н/о +23.4 +3.9 28 +23 +23 комфорт 1017.9 955.8
00 21.04 В 5 н/о н/о +28.3 +3.2 20 +27 +27 жарко 1018.3 956.1
02 21.04 В 4 н/о н/о +30.8 +1.2 15 +28 +28 жарко 1017.8 955.7
03 21.04 ЮВ 6 н/о н/о +33.1 +2.1 14 +30 +30 жарко 1016.9 954.8

 

Местоположение метеостанции Alice Springs Airport (Северная территория, Австралия): широта -23.80 долгота 133.88 высота над уровнем моря 547 м.

В архиве по умолчанию представлена погода в Alice Springs Airport за последнюю неделю. Архивные данные за месяц целиком и за предыдущие месяцы, начиная с января 2011 года, Вы можете получить, выбрав интересующий диапазон дат из раскрывающегося списка и нажав кнопку "Ввод!".


*Определитесь, кто Вы:
робот инопланетянин человек

Внимание! Время в таблицах - всемирное. Для получения местного времени необходимо прибавить поправку, которая в Alice Springs Airport равна 9.5 ч.

Смотрите также архив погоды в соседних городах и на ближайших метеорологических станциях:

Погода в Territory Grape Farm (Северная территория, Австралия) (152 км)
Погода в Jervois (Северная территория, Австралия) (250 км)
Погода в Pukatja (Южная Австралия, Австралия) (324 км)
Погода в Yulara Aero (Северная территория, Австралия) (332 км)
Погода в Oodnadatta Airport (Южная Австралия, Австралия) (446 км)
Погода в Wulungurru (Северная территория, Австралия) (464 км)
Погода в Tennant Creek Airport (Северная территория, Австралия) (465 км)
Погода в Rabbit Flat (Северная территория, Австралия) (566 км)
Погода в Giles Meteorologica (Западная Австралия, Австралия) (581 км)
Погода в Coober Pedy Airport (Южная Австралия, Австралия) (588 км)

Пояснения к столбцам:

Ветер - указаны скорость ветра в м/с - средняя за 10 мин, порывы в срок и между сроками (в фигурных скобках) и направление, откуда дует ветер: С - северный, СВ - северо-восточный, В - восточный, ЮВ - юго-восточный, Ю - южный, ЮЗ - юго-западный, З - западный, СЗ - северо-западный.
Видимость - горизонтальная дальность видимости в метрах или километрах. При видимости от 1 до 10 км при отсутствии осадков обычно наблюдается дымка, при ухудшении видимости до 1 км и менее - туман. В сухую погоду видимость может ухудшаться дымом, пылью или мглою.
Явления - указаны атмосферные явления, наблюдавшиеся в срок или в последний час перед сроком; фигурными скобками обозначены явления, наблюдавшиеся между сроками (за 1-3 часа до срока); квадратными скобками обозначены град или гололедные отложения с указанием их диаметра в мм.
Облачность - указаны через наклонную черту общая и нижняя облачность в баллах и высота нижней границы облаков в метрах; квадратными скобками обозначены формы облаков: Ci - перистые, Cs - перисто-слоистые, Cc - перисто-кучевые, Ac - высококучевые, As - высокослоистые, Sc - слоисто-кучевые, Ns - слоисто-дождевые, Cu - кучевые, Cb - кучево-дождевые. Подробнее классификацию облаков см. в Атласе облаков (PDF).
T - Температура воздуха - температура, измеренная на высоте 2 м над землей.
Td - Температура точки росы - температура, при понижении до которой содержащийся в воздухе водяной пар достигнет насыщения.
f - Относительная влажность воздуха - влажноcть воздуха, измеренная на высоте 2 м над землей.
Te - Эффективная температура - температура, которую ощущает одетый по сезону человек в тени. Характеристика душности погоды. При расчете учитывается влияние влажности воздуха и скорости ветра на теплоощущения человека.
Tes - Эффективная температура на солнце - температура, которую ощущает человек, с поправкой на солнечный нагрев. Характеристика знойности погоды. Зависит от высоты солнца над горизонтом, облачности и скорости ветра. Ночью, в пасмурную погоду, а также при ветре 12 м/с и более поправка равна нулю.
P - Атмосферное давление - приведенное к уровню моря атмосферное давление.
Po - Атмосферное давление - измеренное на уровне метеостанции атмосферное давление.
Tmin - Минимальная температура - минимум температуры воздуха на высоте 2 м над землей.
Tmax - Максимальная температура - максимум температуры воздуха на высоте 2 м над землей.
R - Количество осадков - Количество выпавших осадков за период времени, мм. При наведении курсора мыши на число - период времени, за который выпало указанное количество осадков.
R24 - Количество осадков - Количество выпавших осадков за 24 часа, мм.
S - Снежный покров - Высота снежного покрова, см. При наведении курсора мыши на число - состояние снежного покрова и степень покрытия местности в баллах.